Location: Egypt
(35.2429°N, 89.9254°W)
Time: 02:06:42
(UTC+00:00)

ACS3 Solar Sail - Visible Passes

Search period start: 08 October 2024 00:00
Search period end: 18 October 2024 00:00
Orbit: 962 x 1035 km, 97.4° (Epoch: 07 October)

Date Brightness Start Highest point End Pass type
(mag) Time Alt. Az. Time Alt. Az. Time Alt. Az.
08 Oct 3.2 00:36:56 17° ENE 00:37:56 17° ENE 00:41:52 10° NNE visible
08 Oct 2.2 02:22:05 61° NW 02:22:05 61° NW 02:27:31 10° NNW visible
09 Oct 2.6 01:09:06 32° ENE 01:09:13 32° ENE 01:14:42 10° N visible
09 Oct 3.3 02:54:15 33° WNW 02:54:15 33° WNW 02:58:45 10° NNW visible
10 Oct 2.0 01:41:16 56° NE 01:41:16 56° NE 01:46:51 10° N visible
10 Oct 4.1 03:26:24 18° WNW 03:26:24 18° WNW 03:29:15 10° NW visible
11 Oct 3.3 00:28:14 15° ENE 00:29:05 15° ENE 00:32:31 10° NNE visible
11 Oct 2.2 02:13:24 61° NW 02:13:24 61° NW 02:18:35 10° NNW visible
12 Oct 2.7 01:00:22 28° ENE 01:00:22 28° ENE 01:05:31 10° NNE visible
12 Oct 3.2 02:45:31 36° WNW 02:45:31 36° WNW 02:49:54 10° NNW visible
13 Oct 2.1 01:32:28 48° NE 01:32:28 48° NE 01:37:45 10° N visible
13 Oct 4.0 03:17:37 19° WNW 03:17:37 19° WNW 03:20:32 10° NW visible
14 Oct 3.4 00:19:25 13° ENE 00:20:08 13° ENE 00:22:53 10° NE visible
14 Oct 2.2 02:04:34 58° NNW 02:04:34 58° NNW 02:09:31 10° NNW visible
15 Oct 2.9 00:51:29 25° ENE 00:51:29 25° ENE 00:56:12 10° NNE visible
15 Oct 3.1 02:36:39 37° NW 02:36:39 37° NW 02:40:51 10° NNW visible
16 Oct 2.3 01:23:33 42° NE 01:23:33 42° NE 01:28:29 10° N visible
16 Oct 3.9 03:08:42 21° WNW 03:08:42 21° WNW 03:11:37 10° NW visible
17 Oct 3.5 00:10:27 11° ENE 00:11:02 11° ENE 00:12:51 10° NE visible
17 Oct 2.3 01:55:36 53° N 01:55:36 53° N 02:00:17 10° N visible
17 Oct 4.6 03:40:45 10° WNW 03:40:45 10° WNW 03:40:54 10° WNW visible
